User: anonymous   Login
Location: Unspecified
(0.0000°N, 0.0000°E)
Time: 21:39:26
(UTC+00:00)
Language:

Alouette 1 - Orbit

View from above orbital plane
View from above orbital plane
View from above satellite
View from above satellite

Ground track
Ground track

The orbit data is extracted from the following two-line orbital elements,

1 00424U 62049A   17235.42966392  .00000034  00000-0  29181-4 0  9992
2 00424  80.4669 200.6587 0021945 262.1884 223.2598 13.69085501740678
Epoch (UTC): 23 August 2017 10:18:42
Eccentricity: 0.0021945
inclination: 80.4669°
perigee height: 986 km
apogee height: 1019 km
right ascension of ascending node: 200.6587°
argument of perigee: 262.1884°
revolutions per day: 13.69085501
mean anomaly at epoch: 223.2598°
orbit number at epoch: 74067

The dashed part of the orbit path shows where the satellite is in the earth's shadow,  

DLR